Location: Allie Creek
(37.5926°N, 89.8526°W)
Time: 05:07:51
(UTC+00:00)

Cosmos 1339 Rocket - Pass Details

Date: 26 September 2023
Orbit: 941 x 1006 km, 82.9° (Epoch: 29 November)

Event Time Altitude Azimuth Distance (km) Brightness Sun altitude
Exits shadow 02:09:36 67° 68° (ENE) 1,052 4.4 -27.5°
Drops below altitude 10° 02:15:28 10° 12° (NNE) 2,754 7.0 -28.6°
Sets 02:18:01 0° 10° (N) 3,715 7.7 -29.1°
